Temp
10 10 10 9 9 9 9 9 8 8 8 8 9 9 8 8 8 8 8 8 8 9 9 9 9 9 9 10 10 11 9 9 12 13 16 16 18 18 18 17 16 17 17 18 17
10 10 10 10 10 9 9 9 9 8 8 8 9 8 8 8 8 8 8 8 8 9 9 9 9 9 9 9 11 11 8 10 13 14 17 15 17 18 18 16 15 16 17 18 17
11 10 10 10 10 10 9 9 9 9 9 9 8 8 8 8 8 8 8 8 8 9 9 9 8 9 10 10 10 10 9 11 13 15 15 16 16 18 17 15 16 16 15 17 17
11 11 11 11 10 10 9 9 9 9 9 9 8 8 8 8 7 8 8 8 8 8 8 8 8 9 9 8 11 10 12 13 13 14 14 14 16 17 16 18 19 18 18 17 17
11 11 11 11 10 10 10 10 9 9 9 8 8 8 9 8 8 8 8 7 8 8 7 8 8 8 8 9 10 10 11 13 13 14 15 15 15 16 16 18 19 17 17 17 17
12 11 11 11 11 11 10 10 10 10 9 9 9 8 8 7 7 7 7 8 7 8 8 8 9 9 9 8 10 10 11 12 12 14 15 14 15 17 16 17 18 18 16 16 16
12 12 12 11 11 11 11 10 10 10 10 9 9 9 8 8 7 7 7 7 7 7 8 8 8 9 8 8 9 11 11 11 12 14 13 14 14 15 17 16 15 15 15 15 16
12 12 12 12 12 12 11 11 11 11 10 10 10 9 9 8 8 8 7 7 7 7 8 8 8 9 9 9 10 10 10 10 12 13 14 14 13 15 15 15 13 14 14 14 15
12 12 12 12 12 12 12 12 12 11 11 10 10 9 9 9 8 8 7 6 7 7 7 8 8 8 8 9 9 9 7 9 12 12 14 14 14 14 14 14 13 14 14 14 14
12 12 12 12 12 13 13 13 12 12 12 11 10 9 9 10 9 8 7 7 7 7 8 8 8 8 8 7 9 7 9 10 11 13 13 13 14 13 13 14 14 16 15 14 14
12 12 12 12 12 13 13 13 13 12 12 11 11 10 11 10 9 9 7 7 8 7 8 8 8 7 9 9 10 10 10 11 12 13 13 13 12 12 13 14 13 13 14 14 15
12 12 12 12 12 12 13 12 12 11 10 12 11 11 11 11 10 10 8 7 7 8 7 8 6 9 10 10 11 11 10 11 13 13 13 12 13 13 12 13 14 15 14 14 14
12 12 12 12 12 12 12 11 11 10 9 12 12 12 12 11 11 11 10 10 10 9 8 9 9 10 10 10 10 10 9 11 12 13 11 11 12 13 14 14 14 14 14 14 14
12 12 12 12 11 11 12 11 11 10 3 9 11 12 12 12 12 12 11 11 11 10 10 9 9 10 9 10 10 11 11 12 12 11 9 11 9 11 12 13 13 14 14 14 14
13 12 12 12 12 11 11 11 11 10 5 10 11 12 12 11 12 12 12 12 10 10 10 10 9 9 10 11 10 11 10 12 12 9 9 11 7 11 11 12 11 12 14 15 15
12 12 12 11 11 11 11 11 11 4 5 7 11 10 11 12 12 12 12 12 11 10 9 9 10 9 9 10 10 10 11 10 8 9 8 11 8 9 9 11 12 12 13 14 15
13 12 12 12 11 11 11 10 5 5 8 9 9 9 9 10 11 9 9 7 7 8 9 9 9 9 9 11 10 9 9 6 9 9 8 7 7 9 10 10 11 11 14 13 13
13 12 12 12 11 11 10 7 6 8 8 9 9 9 10 10 11 9 9 6 8 8 7 7 8 9 8 9 10 10 10 7 10 8 7 9 9 8 10 10 10 11 13 12 12
12 12 12 12 11 11 10 3 7 7 8 8 9 9 8 9 10 9 7 7 8 7 8 9 10 9 9 9 9 11 9 8 5 4 5 5 10 11 8 8 8 8 11 12 12
13 12 12 11 11 10 6 7 7 8 8 8 9 9 9 8 9 9 7 8 7 8 8 9 10 10 10 9 9 9 8 9 5 9 10 6 10 4 5 10 10 9 11 12 11
13 12 11 11 10 10 4 5 7 9 9 9 9 9 9 9 8 8 8 9 7 7 8 8 7 10 10 9 9 9 9 8 8 7 9 8 7 6 7 8 8 9 11 12 12
12 9 11 10 8 3 5 7 9 9 9 9 9 9 9 9 9 9 9 8 8 7 8 7 7 7 10 9 8 8 9 9 8 10 6 7 7 9 8 8 10 10 11 11 11
11 11 10 10 8 6 7 8 9 8 9 9 9 9 9 9 10 9 8 9 8 7 7 7 7 5 9 9 8 9 9 8 6 6 7 7 6 7 8 7 8 9 10 11 11
11 7 10 9 9 7 8 8 9 9 9 9 9 9 9 10 9 10 9 8 8 8 8 7 5 8 8 10 7 10 9 8 7 5 8 7 8 9 7 6 7 8 9 10 10
10 9 9 7 8 8 8 8 9 8 8 9 9 8 9 9 10 10 9 8 8 8 7 6 8 4 6 7 7 9 9 9 7 8 8 9 7 8 6 6 7 8 8 9 9
10 9 8 8 9 8 7 7 8 9 7 8 8 8 8 9 8 9 8 8 8 7 7 5 7 6 8 7 6 8 7 6 6 7 8 7 8 7 6 7 6 7 8 7 8
9 10 10 9 6 6 7 8 8 9 9 9 8 8 8 8 9 8 8 7 7 7 6 6 5 4 8 6 7 7 7 6 6 6 7 6 7 5 5 5 6 6 7 7 7
Height
1534 1532 1529 1525 1522 1520 1517 1514 1510 1508 1506 1505 1503 1502 1500 1498 1497 1497 1497 1497 1496 1495 1495 1497 1499 1502 1504 1506 1509 1512 1517 1517 1510 1509 1504 1504 1504 1507 1507 1508 1511 1511 1512 1515 1524
1534 1532 1529 1526 1523 1521 1517 1514 1512 1510 1508 1506 1504 1502 1500 1499 1498 1497 1497 1495 1494 1495 1497 1497 1499 1501 1503 1504 1508 1510 1517 1513 1506 1504 1503 1502 1503 1504 1508 1509 1512 1513 1513 1518 1523
1534 1532 1529 1526 1524 1521 1518 1515 1512 1510 1509 1507 1505 1503 1501 1499 1499 1497 1496 1495 1494 1494 1494 1495 1498 1500 1502 1504 1506 1508 1512 1508 1504 1504 1504 1503 1504 1504 1505 1510 1507 1508 1513 1516 1521
1534 1532 1529 1527 1524 1522 1520 1517 1514 1512 1510 1508 1506 1503 1501 1500 1501 1496 1495 1495 1495 1494 1492 1492 1498 1500 1501 1503 1504 1508 1506 1505 1504 1503 1504 1506 1505 1503 1504 1505 1505 1509 1510 1514 1520
1533 1531 1529 1527 1525 1523 1521 1518 1515 1513 1511 1509 1507 1504 1501 1500 1498 1494 1493 1494 1494 1494 1495 1496 1498 1499 1500 1500 1503 1506 1505 1505 1504 1504 1503 1504 1504 1505 1505 1505 1506 1510 1514 1516 1520
1532 1531 1529 1527 1525 1523 1521 1519 1516 1513 1511 1509 1507 1505 1502 1501 1496 1493 1491 1493 1494 1495 1495 1497 1498 1499 1499 1500 1503 1504 1506 1505 1503 1504 1504 1504 1503 1506 1505 1506 1507 1511 1513 1517 1521
1530 1530 1528 1527 1525 1523 1521 1519 1516 1513 1511 1509 1508 1505 1501 1501 1496 1494 1493 1492 1493 1494 1494 1495 1497 1500 1500 1501 1502 1504 1506 1505 1504 1504 1505 1503 1505 1502 1503 1505 1508 1510 1513 1519 1522
1528 1528 1527 1526 1524 1522 1520 1518 1515 1513 1511 1509 1507 1505 1504 1500 1498 1494 1493 1493 1493 1493 1495 1496 1499 1500 1501 1501 1502 1505 1506 1511 1501 1503 1503 1506 1509 1501 1502 1504 1509 1512 1516 1519 1522
1526 1526 1526 1524 1523 1521 1519 1518 1515 1512 1510 1509 1507 1506 1504 1503 1499 1494 1492 1493 1493 1495 1496 1497 1500 1501 1502 1502 1507 1507 1515 1510 1503 1500 1500 1502 1504 1501 1503 1507 1507 1512 1515 1518 1521
1525 1524 1523 1522 1522 1521 1519 1517 1515 1512 1509 1508 1507 1508 1505 1503 1500 1499 1496 1495 1496 1496 1498 1499 1501 1501 1501 1504 1505 1512 1508 1505 1504 1500 1500 1501 1501 1500 1504 1507 1507 1507 1514 1518 1518
1524 1522 1521 1520 1519 1518 1518 1517 1517 1514 1510 1509 1508 1506 1504 1503 1501 1499 1500 1498 1499 1499 1498 1500 1501 1502 1499 1498 1498 1501 1503 1502 1500 1497 1499 1500 1502 1501 1503 1505 1508 1510 1514 1517 1518
1523 1521 1520 1518 1516 1515 1516 1517 1517 1518 1513 1509 1506 1504 1503 1502 1501 1499 1501 1504 1501 1500 1500 1502 1504 1498 1499 1497 1497 1500 1504 1502 1499 1496 1498 1504 1505 1504 1505 1506 1507 1510 1513 1517 1521
1523 1520 1519 1517 1515 1514 1514 1515 1515 1515 1516 1509 1505 1502 1502 1502 1500 1498 1499 1500 1500 1500 1500 1499 1499 1499 1499 1496 1500 1502 1506 1503 1501 1499 1503 1508 1512 1510 1506 1506 1508 1511 1514 1517 1520
1522 1520 1518 1516 1517 1514 1514 1514 1514 1514 1527 1514 1507 1504 1502 1500 1501 1499 1498 1499 1497 1498 1498 1499 1498 1495 1502 1501 1502 1500 1499 1497 1499 1505 1522 1507 1535 1516 1510 1508 1507 1508 1512 1515 1519
1522 1519 1518 1516 1515 1516 1516 1514 1514 1515 1552 1513 1508 1506 1503 1503 1503 1499 1498 1496 1498 1499 1499 1500 1499 1499 1499 1498 1499 1500 1497 1498 1501 1512 1517 1516 1536 1514 1511 1510 1507 1507 1509 1512 1516
1521 1519 1517 1516 1516 1516 1514 1514 1515 1533 1546 1520 1510 1509 1506 1502 1500 1499 1498 1498 1497 1496 1498 1501 1499 1500 1500 1497 1496 1497 1498 1503 1511 1515 1534 1521 1531 1525 1515 1508 1505 1506 1508 1511 1515
1520 1519 1517 1515 1515 1515 1514 1515 1532 1544 1523 1522 1517 1513 1511 1507 1504 1504 1506 1507 1511 1512 1507 1502 1501 1499 1499 1498 1496 1497 1506 1537 1535 1535 1538 1530 1534 1519 1509 1507 1506 1506 1508 1511 1515
1520 1519 1518 1516 1515 1515 1515 1518 1537 1527 1524 1519 1517 1514 1511 1510 1509 1510 1508 1516 1511 1510 1516 1519 1517 1502 1503 1505 1503 1502 1507 1528 1529 1541 1540 1527 1531 1518 1514 1513 1505 1503 1508 1514 1518
1521 1519 1518 1516 1514 1515 1516 1538 1526 1525 1522 1522 1517 1518 1518 1513 1513 1511 1516 1516 1513 1513 1516 1512 1510 1503 1503 1502 1504 1503 1511 1511 1532 1543 1545 1541 1518 1510 1510 1510 1509 1508 1509 1514 1518
1520 1518 1517 1516 1515 1515 1518 1524 1522 1520 1518 1520 1520 1519 1521 1519 1516 1514 1519 1517 1515 1513 1512 1512 1511 1506 1505 1505 1505 1505 1506 1517 1529 1528 1526 1539 1519 1540 1523 1514 1512 1512 1511 1515 1518
1519 1517 1516 1515 1515 1514 1526 1524 1520 1517 1518 1518 1520 1520 1521 1521 1521 1520 1519 1515 1514 1513 1511 1511 1517 1511 1507 1510 1509 1509 1509 1511 1514 1520 1524 1537 1535 1519 1518 1515 1513 1512 1514 1516 1518
1519 1519 1516 1515 1517 1518 1521 1516 1515 1516 1516 1516 1516 1516 1518 1518 1519 1519 1518 1518 1515 1514 1513 1514 1514 1521 1510 1510 1510 1510 1508 1509 1516 1512 1529 1524 1531 1512 1514 1513 1512 1515 1515 1516 1518
1519 1516 1515 1514 1518 1519 1517 1515 1515 1514 1515 1515 1515 1514 1514 1515 1517 1516 1517 1515 1515 1514 1514 1514 1518 1530 1515 1513 1511 1509 1508 1511 1514 1520 1522 1531 1538 1516 1516 1516 1517 1516 1516 1516 1517
1519 1518 1514 1513 1512 1513 1515 1514 1514 1513 1513 1513 1513 1514 1513 1513 1513 1513 1514 1514 1514 1514 1513 1514 1520 1516 1522 1510 1514 1508 1507 1510 1513 1528 1521 1524 1521 1518 1520 1521 1519 1517 1516 1515 1517
1519 1513 1511 1514 1511 1510 1511 1511 1512 1512 1512 1513 1512 1513 1514 1513 1512 1511 1512 1512 1512 1512 1512 1513 1514 1523 1515 1514 1512 1508 1506 1507 1516 1515 1521 1517 1521 1518 1519 1519 1518 1518 1518 1518 1519
1516 1512 1511 1508 1507 1509 1509 1509 1508 1507 1509 1510 1510 1507 1511 1513 1513 1512 1511 1512 1512 1512 1512 1514 1515 1516 1510 1511 1515 1511 1510 1513 1517 1516 1517 1519 1517 1513 1516 1517 1517 1517 1518 1518 1520
1511 1509 1509 1506 1505 1508 1503 1500 1501 1501 1503 1504 1504 1508 1509 1507 1508 1510 1511 1512 1513 1513 1514 1515 1518 1523 1514 1517 1514 1514 1508 1509 1511 1511 1512 1519 1510 1511 1516 1517 1518 1518 1519 1520 1521
Wind_Speed
10 14 16 18 16 16 15 16 15 10 7 7 8 8 7 4 3 1 1 4 7 7 15 17 15 14 15 12 9 4 2 3 5 10 4 3 3 3 6 18 5 7 13 22 34
10 12 15 16 14 14 14 13 12 11 9 8 7 7 6 3 1 4 6 6 5 7 13 17 16 14 8 9 7 5 3 5 3 1 1 5 6 11 7 10 2 6 14 35 34
9 11 13 13 13 13 13 13 12 10 8 7 6 6 7 4 5 5 7 5 3 5 12 15 10 11 8 7 6 8 4 4 3 1 7 1 2 3 13 4 12 21 28 37 36
7 9 11 11 11 10 12 12 12 10 7 7 10 10 8 5 2 8 9 5 3 3 5 8 8 9 6 6 9 4 12 6 3 3 7 4 8 3 3 2 15 23 30 41 36
5 7 8 9 9 10 10 9 9 7 6 6 10 13 6 4 6 11 10 5 1 6 10 13 10 6 5 6 6 1 4 18 13 13 14 11 7 4 6 5 11 23 34 38 36
2 4 5 7 8 9 10 8 7 6 7 8 9 8 7 3 12 8 7 2 2 5 11 10 8 5 4 2 8 2 6 9 5 10 12 5 5 8 8 11 17 22 34 35 34
4 1 2 4 7 10 10 8 9 9 10 10 10 9 8 9 9 5 5 3 0 5 6 9 2 5 6 4 4 2 2 3 6 7 4 1 2 5 10 15 20 21 24 31 30
6 6 4 5 9 10 13 15 12 9 10 11 13 11 5 11 11 9 4 3 2 3 5 4 8 4 2 2 4 1 4 2 3 7 8 8 4 3 18 22 19 17 23 29 28
6 9 9 7 6 6 8 9 9 7 7 6 7 5 5 7 5 12 5 2 3 7 4 9 9 2 2 4 4 3 4 5 4 11 4 5 4 4 19 19 21 19 18 24 26
8 7 11 13 11 10 9 11 10 9 10 5 6 4 2 5 5 6 11 7 6 5 4 7 3 1 1 1 8 5 2 3 4 5 5 4 3 5 16 20 23 21 19 22 23
11 8 9 10 14 15 13 13 7 4 8 2 5 4 7 8 3 5 3 15 9 1 1 3 2 5 8 4 7 7 3 3 3 3 4 2 4 5 7 8 11 17 22 22 23
13 10 7 9 11 12 13 7 6 6 7 8 11 12 8 5 0 1 5 5 3 2 4 2 2 5 5 5 4 4 1 5 1 1 3 1 3 1 3 4 17 22 22 22 21
12 11 8 5 4 4 7 7 7 5 2 5 9 9 6 7 2 1 2 3 4 1 3 2 6 5 2 4 4 2 6 4 5 3 6 5 5 4 1 1 10 16 19 21 22
12 11 7 5 3 3 1 2 3 2 4 6 3 4 8 6 2 5 3 1 1 2 1 3 2 4 8 4 6 4 1 3 6 4 4 4 3 5 4 4 3 14 16 16 17
9 11 7 4 3 2 2 2 1 2 5 5 5 7 9 4 7 4 7 2 2 1 1 3 6 5 2 1 3 2 0 4 3 6 5 3 5 6 1 6 7 8 13 16 12
7 10 9 4 2 2 1 2 1 6 3 6 5 7 5 6 6 6 4 5 2 3 5 1 3 2 1 2 2 2 4 7 6 4 3 2 4 5 4 5 3 5 9 10 18
8 6 9 4 1 1 1 1 5 5 2 7 4 5 3 4 6 8 5 6 4 5 5 7 4 5 5 1 1 7 6 3 1 1 4 4 3 6 6 5 3 10 16 10 13
8 4 9 5 1 1 2 4 5 3 4 3 3 4 4 6 4 7 5 6 5 3 2 3 5 5 4 3 2 3 2 5 3 4 4 2 4 5 2 6 7 10 16 15 14
9 5 6 4 0 1 1 4 6 5 1 4 3 5 5 4 3 4 5 3 2 5 3 2 3 4 1 2 2 2 1 4 6 4 4 2 4 3 7 7 10 14 19 15 11
12 6 4 2 1 1 4 3 3 4 3 2 2 1 3 6 4 4 5 2 5 3 0 2 1 2 2 2 2 1 5 3 2 4 3 4 1 4 5 3 2 7 13 13 11
11 5 3 1 3 0 3 5 4 4 3 4 3 1 0 1 2 2 3 2 2 5 2 2 3 2 1 3 1 0 1 4 4 3 4 3 4 5 5 5 6 4 7 9 9
7 2 3 2 1 2 2 4 3 2 2 1 2 3 3 1 1 1 1 3 5 3 2 1 2 1 2 2 2 1 2 1 3 2 3 2 3 2 3 6 1 3 4 5 7
11 4 4 3 1 1 2 1 3 3 3 2 3 3 2 2 1 2 2 2 2 2 0 1 2 2 6 3 2 1 1 3 4 2 2 4 4 3 5 7 7 7 6 7 7
5 2 3 3 2 5 4 3 2 3 2 3 2 0 2 2 3 2 1 2 1 0 2 2 2 4 5 3 2 2 2 3 4 3 1 3 3 1 4 5 9 13 13 11 8
5 4 3 2 3 3 4 5 4 4 4 4 1 4 3 2 1 2 1 2 2 2 2 3 1 2 3 4 2 2 2 2 3 2 3 4 7 4 7 6 6 9 11 13 13
6 4 4 3 3 5 3 6 8 3 7 4 4 6 5 4 5 4 1 1 1 3 2 3 1 2 2 2 5 3 4 3 2 3 2 5 5 4 5 7 7 9 12 15 16
11 12 5 4 3 4 5 6 8 8 7 5 7 4 4 6 6 3 1 0 1 1 2 2 2 3 4 3 3 5 6 4 4 3 6 6 6 6 3 7 8 10 12 13 11
Wind_Direction
13 13 7 9 11 8 8 13 19 25 28 16 13 17 13 35 54 42 137 268 262 256 213 198 182 192 196 184 170 180 40 185 189 179 171 161 153 100 144 143 168 181 161 172 159
7 11 5 12 12 10 13 14 18 20 19 21 44 31 24 348 217 17 300 315 274 243 217 198 199 201 186 165 177 173 138 215 213 323 202 210 197 147 143 141 137 157 158 160 162
4 8 4 12 16 19 24 25 24 26 31 35 15 1 342 333 285 330 339 321 300 240 223 200 209 193 172 160 186 174 184 221 269 50 29 325 232 192 152 203 190 173 160 164 169
360 10 7 14 13 21 25 24 29 35 31 8 4 332 325 332 290 336 339 332 342 202 150 226 188 176 173 165 178 176 231 262 295 43 2 1 313 305 167 182 202 180 169 169 174
356 10 18 20 10 9 6 13 29 29 18 5 8 15 343 315 319 315 324 313 260 187 188 190 200 160 172 147 141 150 208 243 263 314 308 310 270 272 177 141 167 171 171 175 180
321 8 24 29 15 9 4 3 352 342 341 338 337 334 6 327 338 326 330 225 24 164 188 190 201 181 127 151 156 148 271 247 312 295 309 285 305 196 195 175 168 174 175 181 186
258 263 328 355 353 347 347 354 5 323 320 319 323 326 297 328 349 345 22 352 309 182 201 176 155 182 151 158 180 117 215 315 271 262 306 3 271 241 198 172 172 178 183 188 192
248 241 257 304 331 343 346 345 327 328 325 323 312 312 319 6 31 338 289 314 324 199 187 167 178 121 129 160 137 83 86 143 220 213 253 179 233 220 177 169 166 173 182 194 198
271 244 253 277 304 345 7 1 18 357 288 306 325 302 306 336 35 33 118 177 98 130 154 160 148 137 145 148 107 232 184 185 326 195 167 166 210 178 178 183 161 173 185 190 201
325 279 255 261 271 280 310 329 297 338 9 307 318 315 265 328 320 43 84 115 119 127 129 151 155 68 219 172 185 183 223 164 200 194 184 156 204 151 181 188 179 173 200 208 207
354 309 285 273 269 274 287 319 339 294 322 323 314 286 316 338 320 307 146 136 89 21 124 201 154 207 199 200 164 162 179 127 244 242 103 190 151 178 159 187 180 187 208 213 214
352 343 314 296 282 274 275 301 316 296 312 310 306 297 325 327 320 291 197 180 203 100 187 149 111 190 191 246 131 92 219 172 262 11 102 111 74 118 164 200 203 203 209 212 211
346 351 339 330 328 293 263 279 301 317 300 305 307 307 328 326 343 295 208 189 153 185 237 170 163 223 12 343 329 295 201 186 157 134 53 115 360 341 313 234 218 216 218 214 211
348 350 346 338 343 354 311 311 306 333 59 295 334 327 341 331 349 17 343 254 72 235 163 133 274 184 157 203 176 179 266 174 138 91 151 30 229 276 259 258 223 226 226 223 211
341 352 354 348 341 341 345 26 41 75 39 287 314 334 339 12 326 10 12 20 95 356 121 298 1 41 118 183 190 164 188 129 92 90 107 5 72 262 198 248 247 239 232 235 230
333 357 358 345 343 4 81 98 54 42 281 333 318 0 8 357 342 320 17 22 29 72 47 19 311 72 259 309 355 153 88 43 44 70 44 355 120 289 231 247 190 234 223 220 221
338 332 355 3 357 339 128 125 35 101 314 318 336 359 311 305 337 26 26 17 28 39 5 350 339 322 42 348 16 66 69 43 26 5 207 315 52 225 311 328 290 207 204 191 186
343 305 355 357 12 191 152 54 73 240 267 324 355 323 9 355 28 4 8 20 17 30 83 130 333 7 4 56 106 35 116 145 159 158 215 283 229 255 200 307 294 230 195 173 175
338 312 329 351 63 173 199 57 199 185 227 339 336 52 330 357 54 33 22 334 332 23 78 34 314 323 343 11 105 177 230 133 100 32 64 237 284 11 358 21 53 122 144 155 168
338 312 300 309 297 293 79 228 202 215 158 170 92 36 350 324 36 25 15 335 334 33 33 26 15 236 347 357 325 177 165 82 6 128 216 300 343 231 343 316 112 130 151 167 173
338 311 302 241 305 12 142 216 231 220 203 150 171 199 344 355 344 341 323 305 352 318 356 4 110 293 77 18 331 284 313 46 108 103 151 132 272 208 235 280 244 211 185 188 190
335 335 277 259 337 56 150 198 179 223 223 211 154 187 190 190 24 154 280 243 344 313 17 26 132 270 257 276 226 240 324 89 116 194 46 121 261 347 343 353 27 203 184 176 171
322 272 242 269 212 278 262 249 243 168 238 224 223 191 190 211 132 182 201 239 334 6 339 1 19 18 349 358 253 107 282 127 117 87 163 118 249 44 50 53 61 97 103 121 134
301 336 238 234 233 153 174 219 222 226 233 198 267 256 184 220 197 215 331 191 275 138 240 165 122 163 187 211 200 315 345 72 87 76 149 203 167 111 72 79 76 81 83 104 111
261 245 218 258 258 199 170 169 171 216 219 211 200 219 221 222 284 241 208 333 185 6 119 120 149 121 261 260 255 275 317 48 107 149 152 200 174 207 186 163 128 108 106 99 89
261 226 230 248 212 170 185 220 198 182 156 232 212 180 178 217 205 241 185 216 257 339 60 353 309 14 297 113 39 309 277 255 216 203 221 204 244 179 136 132 111 105 103 84 72
244 242 233 235 171 139 216 212 208 165 208 207 192 144 204 221 182 159 179 141 51 27 351 39 93 45 294 39 328 289 218 182 181 192 157 182 231 140 95 111 117 116 101 89 78